Location: Oshawa
(43.9000°N, 78.8670°W)
Time: 20:02:40
(UTC-04:00)

Altair - Visible Passes

Search period start: 24 March 2017 00:00
Search period end: 03 April 2017 00:00
Orbit: 1502 x 1682 km, 47.2° (Epoch: 23 March)

Date Brightness Start Highest point End Pass type
(mag) Time Alt. Az. Time Alt. Az. Time Alt. Az.
24 Mar 9.4 02:07:18 11° E 02:07:18 11° E 02:08:08 10° E visible
24 Mar 7.7 04:05:18 48° S 04:06:45 51° SE 04:15:33 10° ENE visible
24 Mar 7.5 06:03:19 16° WSW 06:11:07 82° NNW 06:20:32 10° ENE visible
25 Mar 7.8 03:41:25 48° SE 03:41:41 48° SE 03:50:21 10° ENE visible
25 Mar 7.4 05:39:25 22° WSW 05:45:56 85° NNW 05:55:20 10° ENE visible
26 Mar 8.0 03:17:29 43° SE 03:17:29 43° SE 03:25:09 10° ENE visible
26 Mar 7.4 05:15:29 30° WSW 05:20:47 87° NNW 05:30:09 10° ENE visible
27 Mar 8.2 02:53:30 37° ESE 02:53:30 37° ESE 02:59:56 10° ENE visible
27 Mar 7.3 04:51:30 39° WSW 04:55:38 90° N 05:04:58 10° ENE visible
28 Mar 8.5 02:29:30 31° E 02:29:30 31° E 02:34:42 10° ENE visible
28 Mar 7.3 04:27:30 49° WSW 04:30:29 87° SSE 04:39:47 10° ENE visible
28 Mar 7.7 06:26:23 10° W 06:35:36 72° N 06:45:00 10° E visible
29 Mar 8.7 02:05:28 25° E 02:05:28 25° E 02:09:28 10° ENE visible
29 Mar 7.3 04:03:27 62° SW 04:05:20 84° SSE 04:14:37 10° ENE visible
29 Mar 7.6 06:01:27 11° W 06:10:24 72° N 06:19:46 10° E visible
30 Mar 9.0 01:41:23 20° E 01:41:23 20° E 01:44:12 10° ENE visible
30 Mar 7.2 03:39:23 74° SSW 03:40:12 80° SSE 03:49:26 10° ENE visible
30 Mar 7.6 05:37:23 16° W 05:45:12 73° N 05:54:33 10° E visible
31 Mar 9.2 01:17:18 15° E 01:17:18 15° E 01:18:56 10° ENE visible
31 Mar 7.3 03:15:17 77° SE 03:15:17 77° SE 03:24:16 10° ENE visible
31 Mar 7.5 05:13:17 21° W 05:20:00 73° N 05:29:19 10° E visible
01 Apr 9.4 00:53:10 11° E 00:53:10 11° E 00:53:38 10° ENE visible
01 Apr 7.5 02:51:10 66° ESE 02:51:10 66° ESE 02:59:06 10° ENE visible
01 Apr 7.5 04:49:09 27° W 04:54:49 74° N 05:04:07 10° E visible
02 Apr 7.7 02:27:01 54° E 02:27:01 54° E 02:33:56 10° ENE visible
02 Apr 7.5 04:24:59 34° W 04:29:37 74° N 04:38:54 10° ENE visible
02 Apr 7.6 06:25:37 10° WNW 06:34:51 84° NNE 06:44:17 10° ESE visible
